EDT,Max TemperatureF,Mean TemperatureF,Min TemperatureF,Max Dew PointF,MeanDew PointF,Min DewpointF,Max Humidity, Mean Humidity, Min Humidity, Max Sea Level PressureIn, Mean Sea Level PressureIn, Min Sea Level PressureIn, Max VisibilityMiles, Mean VisibilityMiles, Min VisibilityMiles, Max Wind SpeedMPH, Mean Wind SpeedMPH, Max Gust SpeedMPH,PrecipitationIn, CloudCover, Events, WindDirDegrees
2011-10-1,89,81,72,74,69,66,94,74,53,29.91,29.82,29.77,10,10,10,16,8,20,0.00,5,,342
2011-10-2,85,78,70,66,64,63,84,68,51,30.02,29.95,29.89,10,10,10,13,8,18,0.00,4,,27
2011-10-3,86,82,77,65,64,63,62,55,48,30.08,30.04,29.99,10,10,10,14,8,18,0.00,3,,63
2011-10-4,85,81,76,64,62,60,62,55,48,30.12,30.07,30.04,10,10,10,17,11,23,0.00,4,,53
2011-10-5,86,82,77,69,64,60,76,62,48,30.08,30.04,30.01,10,10,10,22,12,28,0.02,5,Rain,52
2011-10-6,87,82,77,66,63,59,62,55,48,30.05,30.01,29.98,10,10,10,22,13,26,0.00,4,,69
2011-10-7,87,82,76,70,67,65,74,60,46,30.07,30.02,29.99,10,10,10,25,15,31,T,5,Rain,78
2011-10-8,83,81,78,71,69,66,79,71,62,30.01,29.96,29.91,10,10,10,32,23,39,0.01,7,,83
2011-10-9,83,78,73,73,69,66,85,74,63,29.89,29.81,29.74,10,10,10,32,15,39,0.01,6,,43
2011-10-10,91,81,71,75,71,68,93,73,52,29.84,29.79,29.75,10,10,10,18,7,22,0.00,4,Thunderstorm,207
2011-10-11,91,82,72,74,71,62,93,66,38,29.86,29.82,29.78,10,10,10,17,7,22,0.00,3,,181
2011-10-12,90,82,73,74,71,68,94,72,50,29.89,29.84,29.78,10,10,5,20,5,22,0.11,5,Rain,195
2011-10-13,90,81,72,73,70,65,94,69,44,29.84,29.79,29.72,10,10,10,15,6,18,0.00,4,,232
2011-10-14,86,80,74,72,68,64,93,72,51,29.96,29.87,29.80,10,10,10,15,6,20,0.00,7,,1
2011-10-15,84,79,74,69,64,60,82,65,47,30.04,29.99,29.93,10,10,10,20,11,26,0.00,7,,52
2011-10-16,83,80,76,71,68,66,82,70,58,30.05,30.01,29.97,10,10,10,23,15,29,T,8,Rain,75
2011-10-17,81,78,74,74,72,68,94,83,71,29.99,29.93,29.86,10,9,1,15,8,22,0.77,8,Rain,116
2011-10-18,81,78,74,77,74,71,100,91,82,29.86,29.79,29.63,10,7,0,37,10,120,2.56,8,Rain,114
2011-10-19,82,75,67,77,74,58,97,82,66,29.89,29.67,29.58,10,10,10,25,15,35,0.06,8,Rain,221
2011-10-20,76,68,59,60,56,54,90,68,46,30.09,29.99,29.90,10,10,10,18,5,23,0.00,4,,326
2011-10-21,75,67,58,56,52,48,80,61,41,30.13,30.07,30.02,10,10,10,17,9,22,0.00,3,,346
2011-10-22,81,71,60,62,57,49,87,66,45,30.01,29.96,29.91,10,10,10,15,9,18,0.00,4,,340
2011-10-23,83,74,64,66,64,62,93,76,58,29.99,29.94,29.90,10,10,10,20,9,24,0.00,5,,357
2011-10-24,82,75,67,68,62,56,84,65,45,30.08,30.01,29.95,10,10,10,17,11,22,T,5,,339
2011-10-25,82,74,66,63,61,59,87,67,47,30.11,30.06,30.02,10,10,10,21,11,25,0.00,4,,28
2011-10-26,83,75,67,64,62,59,84,65,46,30.06,30.00,29.95,10,10,10,17,8,21,0.00,4,,84
2011-10-27,84,76,67,74,70,64,93,81,69,29.96,29.92,29.87,10,10,10,17,6,21,0.00,5,,118
2011-10-28,85,79,72,76,74,72,100,87,74,29.95,29.89,29.83,10,8,1,14,5,25,2.61,7,Rain-Thunderstorm,37
2011-10-29,85,79,72,77,74,71,100,87,74,29.93,29.84,29.78,10,9,2,22,9,26,0.67,6,Rain-Thunderstorm,354
2011-10-30,77,75,72,73,71,69,100,88,76,30.03,29.98,29.90,10,8,1,23,16,30,1.18,8,Rain,47
2011-10-31,82,76,70,76,72,69,100,90,79,30.01,29.95,29.89,10,8,0,21,10,26,1.89,7,Fog-Rain-Thunderstorm,324